Allentown, PA (18101)

6:09 AM EST on November 28, 2014 (GMT -0500)
South Filmore Street | Change Station
CLOSE
Current Station
Personal Weather Station
Location: Allentown, PA
Elevation: 341 ft
Nearby Weather Stations

Elev 341 ft 40.59 °N, 75.45 °W | Updated 9 minutes ago

Scattered Clouds
Scattered Clouds
26.6 °F
Feels Like 27 °F
N
0.0
Wind Variable Wind from SE

Today
High -- | Low -- °F
--% Chance of Precip.
Yesterday
High -- | Low -- °F
Precip. -- in
7:03 AM 4:36 PM
Waxing Crescent, 39% visible
Pressure 30.14 in
Visibility 10.0 miles
Clouds Scattered Clouds 6000 ft
Windchill 27 °F
Dew Point 25 °F
Humidity 95%
Rainfall 0.00 in
Snow Depth Not available.
UV 0 out of 12
Pollen .10 out of 12
Air Quality Not available.
Flu Activity Not available.
METAR KXLL 281055Z AUTO 22005KT 10SM SCT060 M01/M05 A3014 RMK AO2

More Conditions Fewer Conditions

Pressure 30.14 in
Visibility 10.0 miles
Clouds Scattered Clouds 6000 ft
Windchill 27 °F
Dew Point 25 °F
Humidity 95%
Rainfall 0.00 in
Snow Depth Not available.
UV 0 out of 12
Pollen .10 out of 12
Air Quality Not available.
Flu Activity Not available.
METAR KXLL 281055Z AUTO 22005KT 10SM SCT060 M01/M05 A3014 RMK AO2

More Conditions Fewer Conditions

10-Day Weather Forecast

Almanac

Astronomy

Nov. 28, 2014 Rise Set
Actual Time
Civil Twilight
Nautical Twilight
Astronomical Twilight
Moon
Length of Visible Light
Length of Day
Tomorrow will be .
, % of the Moon is Illuminated

Today's Extremes

State Highs State Lows

Community

WunderPhotos

Upload Photos

1,774,192 photos uploaded!

WunderBlogs® & News

Nearby

Air Quality

  Air Quality AQ Index Pollutant
Not available.

Snow Depth

Station Depth Elevation

Earthquake Activity

City Distance Mag. Time & Date
Minimum magnitude displayed is 2.5.

Coastal Water Temperatures

Place Temperature

Nearby Weather Stations